Location: Palm Bay
(27.9400°N, 80.7200°W)
Time: 02:29:46
(UTC-04:00)

Daily predictions for brighter satellites

Satellite Brightness Start Highest point End
(mag) Time Altitude Azimuth Time Altitude Azimuth Time Altitude Azimuth
Cosmos 2369 Rocket 4.2 03:38:39 10° N 03:41:29 23° NNE 03:41:29 23° NNE
USA 234 4.3 03:43:45 10° NNE 03:47:57 39° N 03:47:57 39° N
SL-16 R/B 3.6 03:52:07 40° NNE 03:52:07 40° NNE 03:56:28 10° N
Resurs 1-4 Rocket 3.9 03:56:29 10° NNE 03:58:41 26° NNE 03:58:41 26° NNE
CZ-3 Stage 3 4.3 03:03:48 10° WNW 04:07:52 47° S 04:12:31 10° SE
CZ-3 R/B 4.4 02:51:53 10° W 04:05:03 85° SSW 04:18:36 10° ESE
CENTAUR R/B 2.8 04:19:17 61° NE 04:19:17 61° NE 04:24:40 10° NNE
Cosmos 1709 Rocket 4.3 04:11:58 10° N 04:17:25 62° NE 04:17:25 62° NE
NOSS 3-3 (A) 4.5 04:11:59 10° NNW 04:19:41 82° ENE 04:27:44 10° SSE
NOSS 3-3 (C) 4.5 04:12:05 10° NNW 04:19:47 81° ENE 04:27:50 10° SSE
Skynet4D Del rocket 4.3 04:26:40 76° S 04:26:40 76° S 04:34:01 10° ESE
ATLAS 5 CENTAUR R/B 3.5 04:33:27 25° N 04:33:27 25° N 04:35:54 10° NNE
IRS-1C Rocket 4.5 04:30:10 10° NNE 04:35:13 60° E 04:35:13 60° E
Cosmos 839 Rocket 4.1 04:43:08 10° NNW 04:57:45 - SSE 04:49:54 63° W
Cosmos 1933 4.1 04:55:33 52° NE 04:55:33 52° NE 04:58:49 10° NNE
Cosmos 2221 Rocket 4.4 04:58:02 39° SE 04:59:11 49° E 05:03:27 10° NNE
CZ-4B R/B 3.5 04:56:35 10° NNE 04:59:29 50° NE 04:59:29 50° NE
Cosmos 1908 Rocket 4.4 04:58:47 10° N 05:03:00 47° E 05:06:54 12° SSE
Okean O Rocket 2.0 05:00:31 10° N 05:04:08 53° NNW 05:04:08 53° NNW
CZ-2D R/B 3.9 05:03:17 10° NNW 05:05:16 18° NW 05:05:16 18° NW
Atlas Centaur 2 1.8 05:07:32 58° SSE 05:07:32 58° SSE 05:12:28 10° E
COSMOS 2406 3.2 05:08:57 57° WSW 05:09:45 63° WNW 05:15:28 10° NNE
Okean-O 4.0 05:05:57 10° NNE 05:10:03 37° E 05:13:38 13° SSE
Cosmos 1703 Rocket 3.5 05:12:39 60° S 05:13:27 88° E 05:17:56 10° N
Sich 1 Rocket 3.4 05:16:05 10° N 05:20:28 77° W 05:22:01 40° S
SeaSat 1 2.3 05:18:58 10° SSE 05:23:53 85° WSW 05:28:50 10° NNW
Cosmos 2369 Rocket 4.2 05:22:43 10° NW 05:23:07 12° NW 05:23:07 12° NW
CZ-4B DEB 4.3 05:24:39 10° N 05:29:59 56° WNW 05:32:22 32° SW
CZ-4B R/B 3.3 05:26:23 10° N 05:31:26 48° WNW 05:33:12 35° WSW
SL-16 R/B 4.3 05:37:14 14° WNW 05:37:14 14° WNW 05:38:26 10° NW
Geosat 4.0 05:31:43 10° NNE 05:36:42 66° WNW 05:39:22 27° SW
COSMOS 2487 2.4 05:35:36 41° SSW 05:36:46 86° WNW 05:40:23 10° NNE
CZ-2C R/B 3.9 05:37:47 24° SSW 05:40:06 44° W 05:44:21 10° NNW
PSLV R/B 3.5 05:37:06 10° N 05:41:28 75° WNW 05:44:50 17° SSW
Cosmos 2082 Rocket 4.5 05:38:53 10° SSE 05:43:17 23° ESE 05:47:42 10° NE
GPS 2-05 Rocket1 3.3 05:43:30 36° WNW 05:44:22 46° NNW 05:47:33 10° NE
Cosmos 1190 Rocket 4.3 05:45:57 25° SW 05:48:40 46° WNW 05:53:39 10° N
Thor Agena Rocket 3.4 05:44:50 10° S 05:49:53 68° WSW 05:55:02 10° NNW
Cosmos 1943 Rocket 2.4 05:44:56 10° NW 05:50:16 45° WSW 05:55:34 10° S
Okean 1-7 3.2 05:49:18 20° SSW 05:51:59 49° W 05:56:11 10° N
Nadezhda 1 Rocket 4.5 05:49:29 18° SW 05:53:37 39° W 05:59:27 10° NNW
Intelsat 3F5 C 4.2 05:52:55 31° NW 05:53:50 47° N 05:56:15 10° E
MOS 1 Rocket 4.1 05:50:37 10° NNE 05:54:43 46° E 05:58:52 10° S
ADEOS II 2.0 05:50:45 10° N 05:55:58 69° WNW 06:01:11 10° SSW
Okean 2 Rocket 3.0 05:53:33 10° N 05:58:04 79° W 06:02:33 10° S
Cosmos 1408 3.4 05:55:29 10° NNW 05:58:47 30° W 06:00:54 17° SW
Cosmos 1992 Rocket 4.0 05:59:49 10° NNW 06:04:56 56° WSW 06:10:02 10° S
Cosmos 2181 Rocket 4.0 05:58:54 10° S 06:05:21 80° W 06:11:47 10° N
Meteor 1-31 Rocket 2.7 06:01:33 10° NNE 06:05:22 87° ESE 06:09:11 10° S
CZ-4B R/B 4.2 06:00:58 10° NNE 06:05:29 82° ESE 06:09:52 10° S
Cosmos 1825 3.3 06:03:28 10° NW 06:06:30 23° W 06:08:36 15° SW
Centaur D-1A AC-31 1.6 05:58:26 12° W 06:06:33 83° S 06:09:59 10° E
Cosmos 1954 Rocket 3.9 06:02:59 10° SSW 06:08:07 74° WNW 06:13:18 10° N
CENTAUR R/B 4.3 06:06:29 10° WNW 06:09:38 15° NW 06:13:11 10° NNW
ADEOS Rocket 3.8 06:02:19 10° N 06:09:50 54° WNW 06:17:10 10° SSW
Cosmos 1674 Rocket 4.2 06:09:37 10° S 06:14:00 61° E 06:18:22 10° NNE
Cosmos 1023 Rocket 4.4 06:13:46 10° SSW 06:18:49 88° WNW 06:23:56 10° NNE
COBE Rocket 4.1 06:14:26 10° NNE 06:19:36 83° E 06:24:39 10° S
Cosmos 1782 Rocket 4.3 06:16:19 10° NNW 06:20:06 30° W 06:23:53 10° SSW
Cosmos 1656 Rocket 3.7 06:16:18 10° NNW 06:21:32 53° WSW 06:26:46 10° S
OAO 3 Copernicus 4.3 06:18:07 10° WNW 06:23:11 84° SSW 06:28:13 10° ESE
BREEZE-M DEB (TANK) 4.4 06:04:42 10° NW 06:23:15 71° NNE 06:27:42 10° ESE
Timation 2 Rocket 4.0 06:20:54 10° SSW 06:27:16 89° ESE 06:33:24 10° NNE
Centaur D-1AR AC-36 2.8 06:20:43 10° WSW 06:28:01 37° S 06:31:10 10° ESE
Cosmos 2154 Rocket 4.3 06:22:28 10° NNW 06:28:26 45° W 06:34:24 10° SSW
USA 229 DEB 4.3 06:23:18 10° SSW 06:30:04 61° ESE 06:36:52 10° NE
USA 229 4.4 06:23:25 10° SSW 06:30:09 60° ESE 06:36:58 10° NE
Cosmos 1850 Rocket 4.1 06:25:13 10° SSW 06:30:27 83° ESE 06:35:46 10° NNE
Cosmos 1295 Rocket 4.5 06:25:23 10° N 06:31:31 82° W 06:37:41 10° S
COSMO-SKYMED 1 3.5 06:31:30 10° SSE 06:35:43 54° ENE 06:39:57 10° N
CZ-4 R/B 4.2 06:36:03 10° NE 06:39:05 22° E 06:42:05 10° SSE
CSL-04 Rocket 4.0 06:34:29 10° NNE 06:39:52 73° ESE 06:45:08 10° S
